GFSSW_850_thetae_060.txt.gz
Theta_e
309 309 310 310 310 310 311 311 311 311 312 312 312 312 313 313 313 313 314 314 315 314 313 312 314 315 315 317 319 318 311 313 315 315 313 315 313 316 316 317 316 317 317 316 317
309 309 310 310 310 311 311 311 312 312 312 312 312 312 312 313 313 314 314 313 313 313 312 312 314 316 315 318 319 315 310 312 313 315 315 315 315 315 314 314 314 314 315 315 316
309 309 310 310 311 311 311 312 312 312 312 312 312 312 313 314 314 316 312 312 312 312 312 315 316 316 316 316 318 316 313 313 316 316 316 316 314 315 314 312 314 315 315 315 316
310 310 311 311 312 312 312 311 311 311 311 311 313 314 316 317 312 314 313 313 313 312 314 314 315 315 315 314 316 316 317 316 317 317 316 315 316 315 315 315 315 315 315 315 315
311 312 312 312 312 311 311 310 310 310 312 315 317 318 318 317 318 317 316 315 313 312 313 313 314 315 314 314 314 313 314 315 316 315 314 315 314 314 314 315 315 316 316 315 315
310 310 310 309 309 309 309 310 312 314 316 317 317 317 317 315 318 318 317 316 314 311 312 312 314 314 314 313 313 313 313 313 314 315 314 313 312 314 315 316 316 316 316 314 314
314 313 312 312 312 312 314 314 315 316 317 317 317 318 318 318 318 317 317 316 314 312 312 313 314 314 314 313 314 314 312 310 312 313 312 312 313 312 316 315 316 315 312 313 313
314 315 316 316 315 315 315 316 316 316 316 317 318 319 317 317 317 317 316 315 313 312 312 313 314 314 314 313 312 312 311 312 313 313 313 312 313 312 316 315 316 313 311 312 311
314 313 313 313 314 314 315 315 315 316 317 319 319 318 317 315 315 314 313 312 312 312 312 313 314 314 313 309 309 310 311 310 311 313 312 311 311 312 316 314 314 309 310 310 309
313 313 313 313 313 314 315 316 318 318 319 319 319 316 317 315 314 313 312 311 312 311 311 312 312 309 308 308 312 312 310 309 311 311 312 312 309 309 315 313 312 309 308 307 306
315 314 314 315 316 317 318 320 320 320 318 319 318 317 315 315 313 311 311 311 312 312 310 311 308 309 309 309 310 310 310 309 309 310 312 311 311 310 312 312 308 306 305 304 304
320 316 315 317 318 319 319 320 320 319 319 319 320 319 319 316 316 314 313 312 312 311 310 310 309 310 309 309 310 310 310 310 311 310 312 312 311 308 305 305 306 305 304 302 302
324 321 316 317 319 320 320 321 321 321 318 319 319 319 319 318 317 317 315 312 311 310 310 311 312 310 310 311 313 312 312 311 312 312 309 311 311 310 305 305 304 303 302 301 301
325 324 318 318 318 319 320 321 321 319 317 317 316 315 316 316 315 313 312 313 311 311 310 311 311 312 311 313 313 314 312 311 312 310 311 310 313 311 306 304 302 301 301 301 301
325 325 320 317 320 320 320 321 320 317 326 316 313 311 312 314 310 309 311 311 312 312 312 315 313 312 313 313 311 313 310 310 310 309 310 310 310 309 306 306 303 301 301 301 300
324 324 321 319 320 322 321 321 320 323 324 310 309 310 309 308 309 308 310 310 311 311 310 311 310 309 310 309 310 309 310 309 307 308 312 311 310 311 307 306 303 302 301 300 299
324 324 322 320 320 320 322 320 321 323 318 312 311 310 310 309 308 309 308 308 309 311 311 312 311 309 309 310 308 308 309 313 313 312 315 311 310 311 307 305 303 301 300 298 297
324 324 321 321 321 320 321 319 321 321 320 316 314 312 316 315 315 310 309 311 309 311 311 314 313 309 308 310 310 307 310 314 312 315 314 309 312 311 303 303 302 301 299 298 298
322 321 321 322 321 321 318 321 322 321 319 318 316 317 316 316 316 315 311 311 311 309 314 313 312 309 308 309 310 311 312 312 310 296 307 311 308 306 302 300 299 298 298 297 297
320 318 318 320 320 317 316 319 316 316 319 318 317 316 315 316 316 315 314 310 312 308 310 311 313 311 309 309 308 310 309 312 309 308 307 309 310 310 304 302 299 298 297 297 297
318 317 318 317 319 317 315 315 315 316 317 319 319 319 317 317 315 316 314 312 309 309 309 310 310 311 310 310 310 309 309 310 310 309 308 306 308 306 305 302 300 299 300 299 298
313 312 314 316 315 315 312 313 315 315 316 316 316 317 316 315 316 314 314 312 310 310 311 311 310 307 311 307 307 308 308 309 311 310 308 309 310 305 304 302 302 302 301 300 298
307 307 310 312 315 315 313 313 314 314 314 314 316 315 314 315 316 312 312 307 308 309 310 309 308 302 304 304 307 308 308 307 306 304 302 308 307 301 301 300 301 301 300 298 296
305 304 306 309 311 313 313 312 313 312 312 312 313 313 312 312 313 311 309 306 305 307 308 308 303 305 311 304 304 304 306 305 304 302 303 305 304 301 301 299 297 296 297 294 292
303 305 306 305 308 312 310 311 313 310 310 310 308 311 311 311 310 309 306 303 302 303 303 305 302 303 303 305 305 304 304 303 303 301 302 303 301 301 296 296 296 293 292 291 290
303 303 303 303 305 307 309 310 311 310 308 308 309 307 307 309 307 305 304 303 304 300 302 298 298 296 294 300 301 300 301 301 302 301 299 300 299 297 293 293 290 290 290 290 290
301 301 301 303 303 306 306 308 308 306 304 304 306 304 304 305 302 300 300 301 301 300 300 299 295 292 292 292 292 291 292 297 297 296 296 296 296 291 290 289 289 289 290 290 290

GFSSW_850_thetae_063.txt.gz
Theta_e
310 310 310 310 310 310 310 311 311 311 311 312 312 312 313 313 313 313 314 313 314 314 313 312 314 314 314 316 318 317 309 310 313 314 314 315 313 315 316 314 316 316 316 316 315
309 309 309 310 310 310 311 311 311 312 312 312 312 312 312 313 313 314 314 313 313 313 312 312 313 314 315 317 318 313 307 309 311 314 315 315 314 315 314 314 314 314 314 314 315
309 309 309 310 310 311 311 311 312 312 312 312 312 312 313 313 314 315 312 312 312 311 311 314 315 315 315 316 318 314 310 311 314 315 316 315 314 314 314 312 314 314 314 315 315
309 309 310 310 311 311 312 312 312 311 311 311 312 313 315 317 312 313 313 313 312 312 313 315 315 315 314 313 315 316 315 315 315 316 315 314 315 315 314 315 315 314 314 313 314
310 310 311 311 312 312 311 311 310 310 310 312 315 317 318 318 318 317 315 315 314 313 313 314 314 314 313 313 313 312 313 314 315 315 314 314 313 313 314 315 314 313 313 314 315
311 311 311 311 310 309 309 309 309 311 314 316 317 317 318 316 318 318 317 317 315 313 312 313 313 314 314 313 312 312 313 313 314 314 313 312 311 313 315 315 313 313 313 313 314
311 310 310 309 309 310 311 312 314 315 316 317 317 317 318 318 318 318 317 316 314 312 311 312 313 314 313 312 313 313 312 309 311 311 311 312 311 311 315 314 311 312 312 312 311
315 316 316 316 315 314 314 315 316 316 316 316 317 319 317 317 317 317 317 316 315 313 312 312 314 314 314 313 311 311 310 311 312 311 312 312 313 312 315 314 309 310 310 310 310
314 314 313 313 314 314 314 315 315 315 315 317 318 318 317 316 316 316 316 314 313 312 312 313 314 313 312 308 308 308 311 310 311 312 311 311 312 312 315 313 308 308 307 307 307
314 313 313 313 313 313 314 315 317 317 318 319 319 316 317 315 315 314 312 311 312 312 312 312 312 308 307 307 312 312 310 309 309 311 311 312 310 308 312 310 308 306 305 304 304
317 315 314 313 314 314 316 318 319 319 318 318 317 317 315 316 314 312 311 311 311 311 309 310 308 309 309 308 310 311 309 309 308 309 311 310 310 308 305 305 304 303 302 302 301
323 322 317 315 315 316 317 320 319 318 318 318 319 318 316 314 313 311 311 311 311 311 309 309 309 309 309 308 309 309 310 309 309 309 310 311 311 305 303 303 303 301 300 300 300
325 325 323 317 316 317 318 317 320 321 318 319 318 319 319 318 316 315 312 311 311 310 309 311 312 310 309 309 310 310 310 311 312 311 309 310 310 307 303 302 301 301 300 300 300
325 325 324 319 317 318 317 317 320 320 316 316 316 316 317 317 315 317 314 314 310 311 310 310 310 311 310 311 310 313 311 311 312 310 311 309 312 308 304 302 300 299 299 299 299
325 325 325 322 319 319 320 318 321 316 325 316 313 312 314 316 311 309 310 311 311 311 310 314 313 312 312 311 311 313 310 310 309 308 309 309 310 308 304 304 301 299 299 298 297
323 324 325 321 318 320 319 320 318 321 325 314 309 308 309 308 308 308 310 311 311 311 310 312 310 309 310 309 310 308 308 308 306 307 311 309 310 311 305 305 301 300 299 298 297
322 324 324 323 319 319 321 318 322 320 317 312 309 308 308 307 308 307 307 307 308 310 312 311 310 309 308 309 308 308 307 311 313 312 314 309 310 311 305 303 302 300 299 297 297
320 320 323 324 321 320 320 319 318 318 319 311 310 309 310 310 308 308 307 308 307 309 309 313 314 309 307 309 309 306 308 312 312 313 313 309 313 310 301 301 301 300 298 297 296
319 320 322 322 321 320 319 322 320 319 319 317 315 314 315 315 314 310 309 310 310 307 314 313 313 308 307 308 309 308 309 309 309 294 306 310 307 303 300 299 298 298 297 297 297
318 321 322 321 320 320 320 322 319 316 317 316 315 313 315 315 315 313 311 310 311 307 310 311 312 310 308 308 307 309 307 311 308 307 308 309 309 309 302 300 297 296 296 297 297
319 318 319 319 319 318 321 319 316 315 318 317 315 316 313 315 314 315 313 312 309 308 309 309 310 310 309 309 309 308 309 309 309 308 306 305 307 305 304 301 298 297 298 299 298
315 316 317 318 316 316 316 314 315 315 316 318 317 318 318 316 316 315 314 311 308 308 310 309 310 307 310 306 306 307 308 308 313 311 306 307 310 301 303 301 299 298 299 299 298
313 309 311 313 318 315 313 313 314 314 315 317 317 316 315 317 318 316 313 307 307 308 310 310 310 304 310 307 306 307 307 306 305 303 307 308 308 300 300 300 301 301 301 300 298
306 308 308 309 310 312 313 313 315 313 314 314 315 314 314 315 314 313 311 306 304 307 307 308 306 307 312 308 305 305 306 305 304 303 306 306 303 302 300 299 300 300 300 300 297
305 304 305 306 307 310 311 310 312 313 312 313 313 314 315 313 312 310 308 306 304 303 303 306 310 305 304 305 305 304 305 305 303 303 306 305 304 302 299 298 299 299 298 296 292
303 302 301 300 305 308 309 308 310 311 311 310 311 310 312 313 310 308 307 306 307 300 303 299 305 302 303 298 299 302 302 304 303 303 301 302 303 298 300 295 295 296 295 291 290
302 302 302 303 302 303 304 306 308 309 306 306 307 306 307 308 304 300 303 303 302 303 302 301 299 301 304 292 293 297 297 302 303 301 303 302 300 291 288 291 292 292 291 290 290

GFSSW_850_thetae_069.txt.gz
Theta_e
309 309 309 309 309 309 310 310 310 310 311 311 312 312 312 313 313 313 313 313 313 313 313 312 312 313 313 314 315 314 307 308 310 310 313 313 313 313 314 313 314 314 313 312 313
309 309 309 309 309 309 310 310 310 310 311 311 312 312 312 312 313 313 314 312 312 313 313 312 312 312 313 315 316 310 307 308 308 309 313 313 313 314 314 312 313 313 313 313 313
308 308 308 309 309 309 310 310 310 311 311 311 312 312 312 312 314 313 312 312 312 311 311 312 313 313 313 314 315 311 309 308 311 312 313 313 314 314 313 313 312 312 312 312 313
308 308 308 309 309 309 310 310 311 311 311 311 311 311 312 313 311 313 312 312 312 311 312 313 314 313 311 311 314 313 313 312 314 314 314 313 314 313 313 312 312 312 311 312 313
308 308 309 309 309 310 310 311 311 311 311 310 310 312 315 317 316 316 315 313 313 313 312 313 313 312 310 311 312 313 312 313 314 314 313 312 312 312 311 309 310 310 311 312 312
310 310 310 310 310 311 311 311 310 309 309 310 313 316 317 316 317 317 317 317 316 315 313 313 312 312 312 312 311 311 311 312 313 312 312 311 310 311 308 309 310 310 311 311 311
311 310 310 310 310 310 309 309 309 310 312 315 316 317 317 319 319 318 318 317 316 315 313 312 312 312 312 311 311 311 311 308 310 310 310 310 310 309 308 309 310 310 309 309 310
315 315 315 315 315 315 315 316 315 315 315 316 316 316 317 318 318 318 318 317 315 313 312 311 312 313 313 311 310 310 307 312 311 310 310 310 312 306 307 309 308 307 307 307 308
316 315 315 314 314 313 314 314 314 315 315 315 315 316 316 316 316 316 316 316 315 314 313 312 313 312 311 308 309 307 312 309 311 309 309 309 311 305 307 308 305 304 304 304 305
319 315 315 315 314 314 314 313 313 314 315 316 317 316 316 316 315 315 315 314 314 313 312 313 312 307 305 308 313 311 309 308 310 310 309 309 309 304 305 306 302 301 301 302 304
324 320 316 316 315 314 313 314 315 317 316 316 317 316 316 316 314 313 314 313 312 312 309 309 308 310 310 307 309 308 309 311 309 308 309 308 308 306 302 301 300 299 300 301 302
324 323 320 318 317 315 314 314 315 316 316 316 317 316 317 315 313 312 312 312 310 309 307 307 308 309 308 307 308 309 309 309 308 307 308 308 309 304 301 301 300 299 299 299 300
324 324 322 321 322 319 317 316 314 317 318 318 316 316 316 316 315 313 312 311 309 307 307 309 310 307 308 307 308 307 308 308 311 310 308 309 310 305 300 299 299 298 299 299 299
324 323 325 323 320 322 322 322 317 318 315 315 316 317 316 316 313 315 312 311 309 309 308 308 308 310 308 309 309 310 306 308 309 311 313 308 316 306 302 300 298 297 298 298 297
323 323 323 322 321 321 323 323 319 317 326 314 313 313 314 316 312 310 310 310 309 310 311 312 309 309 311 312 308 312 307 307 309 310 308 308 310 307 302 302 299 297 297 297 296
323 323 322 323 321 321 322 320 318 319 321 317 310 309 312 310 308 308 309 310 311 310 309 311 309 309 310 308 308 305 307 306 305 306 310 309 311 310 304 304 300 297 297 296 295
322 322 321 321 321 320 320 319 320 318 317 315 311 308 311 307 307 307 308 309 312 314 312 311 310 308 307 307 306 306 308 311 312 311 313 307 308 311 304 302 301 298 297 296 295
321 322 322 321 322 322 319 318 317 317 317 308 308 307 312 307 307 307 307 309 308 309 311 315 316 309 306 308 309 305 308 312 313 313 313 308 311 311 301 301 301 299 298 296 294
318 322 323 322 320 321 317 320 319 316 315 310 309 310 309 307 308 307 307 308 310 306 316 313 314 307 305 305 307 307 308 308 308 295 307 309 309 302 300 299 299 297 296 295 294
318 320 320 322 321 319 317 320 317 315 313 310 316 310 311 310 309 307 306 306 309 307 308 311 314 308 306 307 306 307 306 310 308 309 309 310 309 311 302 300 298 297 296 296 295
319 319 318 319 319 316 318 317 317 316 315 313 315 315 309 311 311 307 308 308 307 306 308 308 311 309 307 307 308 307 308 307 308 309 310 308 309 304 304 300 298 298 296 296 296
316 316 317 319 317 317 317 317 316 316 316 316 316 315 312 312 312 311 310 309 308 307 309 308 310 309 307 305 304 306 307 308 312 308 304 306 308 300 301 301 299 298 297 297 297
313 314 315 316 319 317 315 316 315 316 316 317 317 316 314 314 316 313 312 306 307 307 309 308 312 312 312 308 305 307 305 306 305 305 304 309 309 300 300 299 299 298 298 297 296
310 311 310 313 310 313 317 317 317 315 316 317 317 316 317 317 315 316 312 306 306 307 308 309 310 312 318 312 306 307 306 305 308 304 306 310 306 303 300 300 298 298 298 297 297
307 307 306 309 309 311 309 307 315 316 314 316 316 317 318 318 318 316 313 305 306 307 307 311 312 306 304 303 305 305 304 305 306 308 311 307 308 305 303 301 300 300 298 298 298
305 304 303 301 304 308 310 306 310 311 312 312 313 315 315 312 313 310 309 308 309 304 306 304 311 309 307 301 302 305 304 303 305 305 305 303 305 302 303 302 300 300 298 297 298
303 303 304 304 303 305 305 306 306 308 306 307 308 310 310 308 308 307 308 307 304 305 305 305 304 307 309 298 302 307 304 303 303 302 305 306 307 295 296 298 300 300 299 300 300

GFSSW_850_thetae_072.txt.gz
Theta_e
310 309 309 309 309 309 309 310 310 310 310 311 311 312 312 312 313 313 313 313 313 313 313 313 312 313 313 314 315 313 316 316 316 317 317 315 316 314 314 315 314 313 313 313 313
309 309 309 309 309 309 309 309 310 310 310 311 311 312 312 312 313 313 313 313 312 312 313 313 312 312 314 316 316 316 316 315 313 315 317 316 316 316 315 315 315 313 313 312 312
309 308 309 309 309 309 309 309 310 310 311 311 311 312 312 312 313 313 312 312 312 312 311 311 312 313 315 315 316 315 316 313 312 313 314 316 315 315 316 316 315 315 311 312 312
308 308 308 308 308 309 309 309 310 310 311 311 311 311 311 312 315 313 312 311 312 311 312 313 313 314 315 315 315 316 315 314 315 314 314 315 315 315 315 313 311 312 311 311 311
308 308 308 308 309 309 309 310 310 311 311 311 310 310 312 315 314 314 313 312 312 312 312 313 313 313 314 314 314 316 315 314 314 314 313 313 314 315 312 309 310 310 310 311 311
310 310 310 310 310 310 310 310 310 310 310 309 310 313 316 317 316 317 317 317 315 315 313 313 313 312 313 314 315 313 313 313 313 313 312 313 313 312 308 308 308 309 310 310 311
314 312 311 311 310 310 310 310 309 309 310 312 314 316 317 318 318 318 318 317 316 315 313 312 313 312 313 313 311 312 315 315 315 313 313 312 313 313 308 308 308 307 307 308 309
316 315 315 315 315 315 315 315 315 316 316 316 316 316 317 318 318 318 318 317 316 315 313 312 312 312 313 311 312 314 314 319 315 312 311 313 320 310 307 309 308 306 305 306 308
321 316 315 315 315 314 314 314 313 314 314 315 315 315 317 316 316 317 317 316 315 313 312 311 312 313 312 314 315 314 320 316 317 312 313 313 318 310 307 308 308 306 304 304 306
323 323 318 315 315 315 314 314 314 313 314 314 316 316 315 316 315 315 315 315 314 313 312 312 312 314 312 315 320 320 317 315 317 314 312 314 316 310 307 308 307 304 303 302 302
324 323 323 320 317 316 314 314 314 316 315 316 316 316 315 315 315 314 315 314 313 312 315 312 315 316 317 316 317 317 316 317 315 313 313 316 316 314 307 306 305 304 303 302 300
323 324 324 323 320 318 317 314 313 315 317 315 316 315 316 315 313 312 313 313 312 315 311 312 315 317 313 314 314 314 316 316 314 312 312 315 314 314 307 307 305 304 302 301 299
322 322 323 324 323 321 320 318 315 316 318 317 315 315 316 316 315 313 312 311 312 312 312 317 316 312 312 311 312 313 315 316 316 313 312 313 316 313 305 303 301 301 300 300 299
319 322 323 323 320 321 322 322 319 317 321 320 317 317 315 316 314 314 313 313 310 313 311 313 312 310 311 312 312 315 312 313 314 315 320 313 322 316 310 305 302 300 300 298 297
316 320 323 322 321 321 322 323 321 317 326 319 315 313 313 315 312 310 310 310 314 312 312 315 311 313 314 313 311 315 311 313 313 316 315 315 318 319 307 307 304 301 300 298 296
309 317 323 323 322 322 321 321 320 320 323 321 312 313 314 311 309 308 309 310 311 312 311 313 309 311 313 310 311 309 311 310 310 313 318 318 317 322 311 310 306 301 299 297 295
309 311 322 322 321 321 321 320 320 318 318 319 315 312 316 313 309 310 310 312 315 316 317 315 313 309 309 313 309 311 314 320 318 317 322 311 315 319 312 307 306 302 299 297 295
309 309 321 322 321 320 319 319 317 319 320 310 310 311 317 312 312 310 312 314 313 315 317 320 321 313 310 316 316 312 317 322 325 320 318 310 314 315 306 304 304 301 300 297 294
313 313 317 321 322 321 318 321 320 318 317 312 310 315 315 310 313 311 313 316 315 313 319 319 320 310 307 308 314 311 312 313 311 305 316 317 314 307 303 303 302 301 299 296 294
313 312 316 317 319 319 318 321 318 316 314 311 320 317 319 314 314 313 313 313 314 312 315 316 320 309 307 308 307 311 311 314 314 320 322 317 315 318 307 305 303 301 299 297 295
314 315 315 316 318 317 318 316 316 316 314 313 317 319 317 314 314 313 316 313 313 311 313 312 314 311 308 311 314 310 311 312 313 315 321 320 317 311 311 307 304 302 299 297 295
314 313 313 316 316 317 317 312 316 316 316 315 315 317 315 312 312 313 314 313 309 309 313 313 313 316 312 307 306 311 313 313 317 314 313 315 317 305 306 307 304 302 300 298 296
313 312 313 316 316 318 316 315 316 316 317 317 317 317 316 316 315 315 315 309 308 310 313 312 315 320 317 309 307 309 309 311 314 313 317 319 318 304 304 304 303 302 301 299 296
309 312 311 312 313 315 317 314 316 315 316 316 317 317 318 318 315 317 315 309 307 308 308 310 314 319 323 319 314 312 311 310 313 317 317 316 316 307 305 305 303 302 301 299 297
306 308 308 311 312 313 312 311 315 316 315 316 317 318 318 319 317 316 315 307 306 307 309 310 314 315 316 307 308 310 312 310 312 313 316 316 313 311 308 306 305 303 301 300 296
305 305 304 304 305 307 311 312 312 312 313 314 316 314 317 319 317 315 312 309 310 305 309 307 313 311 315 305 306 309 308 310 310 312 312 310 310 309 308 305 305 303 301 298 296
302 303 304 304 304 307 307 307 308 309 307 308 308 310 309 308 306 303 307 308 306 306 307 306 308 312 315 302 306 312 311 308 309 309 309 310 312 304 303 304 305 303 300 299 298

GFSSW_850_thetae_075.txt.gz
Theta_e
309 309 309 309 309 309 309 309 310 310 310 310 311 311 312 312 312 313 314 313 313 313 313 313 312 313 315 317 316 314 318 319 318 318 319 318 318 316 316 317 316 315 316 315 314
309 309 309 309 309 309 309 309 309 310 310 311 311 311 312 312 313 313 313 313 313 313 313 314 315 315 317 318 318 318 319 318 316 317 318 318 318 318 317 317 317 315 314 313 313
309 309 309 309 308 309 309 309 309 310 310 311 311 312 312 312 314 314 313 312 312 312 312 312 314 315 316 317 318 318 318 316 315 316 317 318 317 317 317 318 317 317 315 312 312
308 308 308 308 308 308 309 309 309 310 310 311 311 311 312 312 317 313 312 312 312 311 312 312 315 316 316 317 317 318 317 316 316 315 316 317 317 317 316 316 313 312 312 311 311
308 308 308 308 308 309 309 309 310 310 310 311 311 311 311 317 317 314 313 312 312 312 313 315 315 316 317 316 316 317 317 316 316 316 316 316 316 317 316 313 311 311 311 310 310
310 309 309 309 309 309 310 310 310 310 310 310 310 311 314 317 316 315 316 316 313 312 313 314 315 315 315 316 316 316 316 316 316 315 315 315 316 314 314 311 310 310 309 309 309
315 313 312 311 311 311 311 311 310 310 310 311 313 315 317 317 316 317 317 317 317 316 314 314 314 313 315 316 315 315 316 318 318 317 316 314 316 315 313 311 311 310 309 308 308
316 316 315 315 315 315 314 314 314 315 315 316 316 316 318 318 318 318 318 318 317 316 314 313 313 314 315 314 315 317 318 320 319 316 315 315 321 317 312 311 312 311 309 307 307
324 321 317 316 315 315 314 314 314 314 314 314 315 315 318 318 317 317 317 317 316 315 313 312 313 315 314 316 319 318 320 321 321 316 316 316 321 314 311 312 313 312 310 308 306
324 323 323 320 316 315 315 314 314 314 314 314 315 316 316 316 315 316 316 316 314 312 313 313 314 317 316 318 320 321 321 320 320 318 315 317 318 315 312 311 312 312 309 308 306
324 323 323 323 322 318 316 315 318 320 315 318 319 318 315 315 315 314 315 314 314 315 317 315 317 319 319 318 319 320 320 320 320 318 316 318 319 319 313 312 313 311 309 307 305
323 322 323 324 324 323 319 318 317 315 317 317 316 317 317 315 313 313 315 314 314 317 316 315 317 318 319 318 318 319 319 319 320 318 314 317 318 319 317 313 312 311 309 307 303
323 322 322 322 323 323 323 321 317 315 318 318 317 317 317 315 315 314 314 314 315 317 317 319 319 317 318 316 317 317 318 319 319 318 315 316 318 319 318 312 309 308 307 305 303
318 320 321 323 321 321 322 323 320 317 323 323 318 318 316 316 316 316 314 314 314 317 317 317 318 315 316 316 315 318 318 316 317 317 319 318 322 322 320 311 308 306 305 304 302
310 316 318 321 323 322 322 322 322 318 327 322 318 314 313 316 314 312 312 312 316 314 315 317 314 315 316 316 315 317 315 315 316 317 319 320 320 320 317 313 311 307 304 303 301
308 309 312 321 322 323 322 321 320 321 324 323 315 316 315 315 312 309 310 310 312 315 315 315 312 314 315 313 314 313 314 314 314 317 322 320 321 322 319 316 313 307 304 302 300
307 308 309 318 321 322 322 320 321 319 320 322 319 316 318 318 315 313 312 313 316 316 317 316 315 313 313 314 312 314 316 321 323 320 322 317 322 322 318 312 312 307 304 301 299
306 309 311 312 320 321 320 319 318 321 321 315 316 315 320 319 316 314 315 316 315 317 320 322 322 316 313 317 318 315 317 323 328 325 323 312 318 320 309 309 309 306 303 301 298
313 314 316 314 318 319 319 321 319 320 320 317 315 319 320 317 317 316 316 318 318 316 319 322 323 315 315 315 317 316 318 318 318 311 318 319 316 311 307 307 307 305 302 300 297
313 314 313 314 314 318 319 320 318 319 318 316 320 319 323 320 317 316 318 318 319 317 316 321 323 314 313 311 313 316 315 316 318 324 325 323 321 320 310 308 306 305 302 300 297
314 314 314 313 314 316 318 318 318 317 317 315 319 321 321 322 317 317 320 319 317 317 315 318 319 314 310 313 316 313 315 316 318 319 324 324 321 316 316 310 307 305 303 300 297
314 313 313 314 314 316 316 315 315 317 317 316 316 319 321 320 317 318 320 320 314 314 315 317 318 323 315 312 312 315 316 316 319 319 317 319 321 309 311 311 307 305 303 300 298
311 313 312 315 316 316 316 316 316 316 317 317 317 317 318 317 316 316 317 316 311 313 316 316 314 322 319 313 309 311 313 315 315 318 321 322 321 307 307 309 308 306 303 301 298
308 312 311 311 314 315 316 315 316 315 316 316 317 316 317 318 316 317 316 316 310 312 313 314 314 320 325 320 315 313 313 312 315 318 319 319 319 309 309 308 307 306 304 302 299
307 309 309 311 311 312 313 312 315 316 315 316 317 317 317 317 317 317 317 312 308 308 310 313 313 314 317 316 311 314 315 313 313 315 318 318 317 316 311 309 307 306 304 302 299
305 306 306 306 307 311 312 312 312 314 314 314 316 315 315 316 317 317 316 314 313 307 309 309 314 314 316 316 313 311 311 314 313 313 314 315 317 311 312 309 308 306 304 303 301
301 303 303 306 307 308 309 311 311 311 310 309 311 314 314 312 309 307 306 306 307 307 309 308 310 312 317 312 308 311 311 312 313 312 313 314 314 308 307 308 308 307 305 303 302